Temp
3 3 3 3 3 2 2 2 2 2 2 2 2 2 2 2 2 3 3 4 4 4 4 3 3 2 2 2 2 2 1 1 1 1 1 1 1 1 1 1 1 1
3 3 3 3 2 2 2 2 2 2 2 2 2 2 2 2 2 3 3 3 4 4 3 3 3 2 2 1 1 1 1 1 1 1 1 1 1 1 1 1 1 1
3 2 2 2 2 2 2 2 2 2 2 2 2 2 2 2 2 3 3 3 4 3 3 3 2 2 2 1 1 1 1 1 1 1 1 1 1 1 1 1 0 0
2 2 2 2 2 2 2 2 2 2 2 2 2 2 2 2 2 3 3 3 3 3 3 2 2 2 2 2 1 1 1 1 1 1 1 1 0 0 0 0 0 0
2 2 2 2 2 2 2 2 2 2 1 1 1 1 1 2 2 3 3 3 3 3 3 2 2 2 2 2 1 1 1 1 1 1 1 1 0 0 0 0 0 0
2 2 2 2 2 2 2 2 2 1 1 1 1 1 1 2 2 3 3 3 3 3 3 2 2 2 2 2 1 1 1 1 1 1 1 1 0 1 1 1 1 1
2 2 2 2 2 2 1 1 1 1 1 1 1 1 1 1 2 2 3 3 3 3 3 3 3 2 2 2 2 1 1 1 1 1 1 1 1 1 1 1 1 1
1 1 1 1 2 2 1 2 2 1 1 2 2 1 1 1 2 2 2 3 3 3 3 3 2 2 2 2 2 2 2 1 1 1 1 1 1 1 1 1 1 1
1 1 2 1 1 1 2 2 2 2 2 2 2 1 1 1 1 2 2 3 2 2 2 2 2 2 2 2 2 1 1 1 1 1 1 1 1 1 1 1 1 1
1 1 1 1 1 2 2 2 2 2 2 2 2 2 1 1 1 2 2 2 2 2 2 2 2 2 2 2 1 1 1 1 1 1 1 0 0 0 0 0 0 0
1 2 1 1 1 2 2 2 2 2 2 2 2 2 1 1 1 1 2 2 2 2 1 1 2 2 2 1 1 1 1 1 1 1 1 1 0 0 0 0 0 0
1 1 1 1 1 1 1 1 1 1 1 2 2 2 2 1 1 1 2 2 1 1 1 1 1 1 1 1 1 1 1 1 1 0 1 1 0 0 0 0 0 0
1 1 1 1 1 1 1 1 1 1 1 1 1 1 2 1 1 1 1 2 1 1 1 1 1 1 1 1 0 0 0 0 1 0 0 0 0 0 0 0 0 0
1 1 1 1 1 1 1 1 1 1 1 1 1 1 1 1 1 1 1 1 1 1 1 1 1 0 0 0 0 0 0 0 0 0 0 0 0 -0 -0 -0 -0 -0
2 1 1 1 1 1 1 1 1 1 1 1 1 1 1 1 1 1 1 1 1 1 1 1 1 0 0 0 0 0 0 0 0 0 0 0 0 0 -0 -0 -0 -0
1 1 1 1 1 1 1 1 1 1 2 2 1 1 1 1 1 1 1 1 1 1 1 1 1 0 0 0 -0 -0 -0 -0 -0 -0 0 0 0 0 0 -0 -0 -0
1 1 1 1 1 1 1 1 1 1 2 2 1 1 1 1 1 1 1 1 1 1 1 1 0 0 0 -0 -0 -0 -0 -0 -0 -0 -0 -0 -0 -0 -0 -0 -0 -0
1 1 1 1 1 0 1 1 1 1 1 1 1 1 1 1 1 1 1 1 0 0 0 0 0 0 -0 -0 -0 -0 -0 -0 -0 -1 -1 -1 -1 -1 -1 -1 -1 -0
1 1 1 1 1 0 1 1 1 1 1 1 1 1 1 1 1 1 0 0 0 -0 -0 0 -0 -0 -0 -0 -0 -1 -1 -1 -1 -1 -1 -1 -1 -1 -1 -1 -1 -1
1 1 1 1 1 1 1 1 1 1 1 1 0 -0 0 0 0 -0 -0 -1 -1 -1 -1 -0 -0 -0 -0 -0 -1 -1 -1 -1 -1 -1 -1 -1 -1 -1 -1 -1 -1 -1
1 1 1 1 1 1 1 1 1 0 0 0 -0 -0 -0 -0 -0 -0 -1 -1 -1 -1 -1 -1 -1 -1 -1 -1 -1 -1 -1 -1 -1 -1 -1 -1 -1 -1 -1 -1 -1 -1
0 0 0 0 0 -0 -0 -0 -0 -0 -0 -1 -1 -1 -1 -1 -1 -1 -0 -0 -0 -0 -1 -1 -1 -1 -1 -1 -1 -1 -1 -1 -1 -0 -1 -1 -1 -1 -1 -1 -1 -1
-1 -1 -0 -1 -1 -1 -1 -1 -1 -1 -1 -1 -1 -1 -1 -0 -0 -0 -0 -0 0 -0 -0 -0 -0 -1 -1 -1 -1 -1 -1 -1 -1 -1 -1 -1 -1 -1 -1 -1 -1 -1
-1 -1 -1 -1 -1 -1 -1 -1 -1 -1 -1 -1 -1 -1 -1 -0 -0 -0 -0 -0 -0 -0 -0 -0 -0 -0 -1 -1 -1 -1 -1 -1 -1 -1 -1 -1 -1 -1 -1 -1 -1 -1
-1 -1 -1 -1 -1 -1 -1 -1 -1 -1 -1 -1 -1 -1 -1 -0 -0 -0 -0 -0 -0 -0 -0 -0 -0 -1 -1 -1 -1 -1 -1 -1 -1 -1 -1 -1 -1 -1 -1 -1 -1 -1
-1 -1 -1 -2 -2 -1 -1 -1 -1 -1 -1 -1 -1 -1 -1 -1 -1 -1 -1 -1 -1 -1 -1 -1 -1 -1 -1 -1 -1 -1 -1 -1 -1 -1 -1 -1 -1 -1 -1 -1 -1 -1
Height
3143 3144 3144 3144 3145 3145 3145 3144 3144 3144 3144 3144 3143 3143 3143 3143 3142 3143 3143 3143 3143 3143 3144 3145 3146 3147 3147 3148 3149 3150 3151 3151 3152 3152 3152 3152 3152 3153 3154 3154 3155 3156
3142 3143 3143 3144 3144 3144 3144 3144 3144 3143 3143 3142 3142 3142 3143 3143 3142 3142 3142 3142 3143 3143 3144 3144 3145 3146 3147 3148 3149 3149 3150 3150 3151 3151 3151 3151 3152 3152 3153 3154 3154 3155
3141 3142 3142 3143 3143 3143 3143 3143 3142 3142 3142 3141 3141 3141 3141 3142 3142 3142 3142 3142 3142 3143 3144 3144 3145 3146 3147 3148 3148 3149 3149 3149 3150 3150 3151 3151 3152 3152 3153 3153 3154 3155
3140 3140 3141 3141 3141 3142 3141 3141 3141 3141 3140 3140 3139 3139 3140 3141 3141 3141 3141 3141 3142 3142 3143 3144 3145 3145 3146 3147 3148 3148 3149 3149 3149 3150 3150 3151 3152 3152 3153 3153 3154 3155
3138 3138 3139 3140 3140 3140 3140 3140 3139 3139 3139 3138 3138 3138 3139 3140 3140 3140 3140 3141 3141 3142 3143 3144 3144 3145 3146 3147 3147 3148 3148 3149 3149 3150 3150 3151 3152 3152 3153 3154 3154 3155
3136 3137 3138 3138 3138 3139 3138 3138 3138 3138 3138 3137 3137 3138 3138 3139 3139 3140 3140 3140 3141 3141 3142 3143 3144 3144 3145 3146 3147 3148 3148 3149 3149 3150 3150 3151 3152 3152 3153 3154 3155 3155
3135 3136 3137 3137 3137 3137 3137 3137 3137 3137 3137 3136 3136 3137 3137 3138 3139 3139 3140 3140 3141 3141 3142 3143 3144 3144 3145 3146 3147 3147 3148 3149 3149 3150 3150 3151 3152 3152 3153 3154 3155 3155
3135 3135 3136 3136 3137 3137 3137 3137 3136 3136 3136 3135 3135 3135 3136 3137 3138 3139 3140 3140 3141 3141 3142 3143 3144 3144 3145 3146 3146 3147 3148 3149 3149 3150 3151 3151 3152 3153 3153 3154 3155 3156
3134 3135 3136 3136 3137 3137 3137 3137 3136 3136 3136 3135 3135 3135 3135 3136 3138 3139 3139 3140 3141 3142 3143 3143 3144 3145 3145 3146 3147 3147 3148 3149 3150 3150 3151 3152 3153 3153 3154 3155 3155 3156
3133 3135 3136 3136 3136 3136 3137 3137 3137 3136 3136 3135 3134 3134 3134 3136 3137 3138 3139 3140 3141 3142 3143 3143 3144 3145 3146 3146 3147 3148 3148 3149 3150 3151 3151 3152 3153 3154 3155 3155 3156 3157
3132 3134 3135 3136 3136 3136 3136 3137 3136 3136 3135 3135 3134 3134 3134 3135 3136 3138 3139 3139 3141 3142 3142 3143 3144 3145 3146 3147 3147 3148 3149 3150 3151 3151 3152 3153 3154 3155 3155 3156 3157 3158
3130 3133 3133 3134 3134 3135 3136 3136 3136 3135 3135 3134 3134 3133 3134 3134 3136 3137 3138 3139 3140 3141 3142 3143 3144 3145 3146 3146 3147 3148 3149 3150 3151 3152 3153 3153 3154 3155 3156 3156 3157 3158
3127 3129 3130 3131 3133 3134 3135 3135 3135 3135 3134 3134 3134 3134 3134 3134 3135 3136 3137 3139 3139 3140 3141 3142 3143 3144 3145 3146 3147 3148 3149 3150 3151 3152 3153 3153 3154 3155 3156 3156 3157 3158
3127 3127 3128 3131 3133 3133 3134 3134 3134 3134 3134 3133 3133 3133 3133 3134 3134 3135 3137 3138 3139 3140 3141 3142 3143 3144 3145 3146 3147 3148 3149 3149 3150 3151 3152 3153 3154 3155 3155 3156 3156 3157
3128 3128 3129 3130 3132 3132 3133 3133 3133 3133 3133 3132 3132 3132 3132 3133 3134 3134 3136 3137 3138 3139 3140 3141 3142 3143 3144 3145 3146 3147 3148 3148 3149 3150 3151 3152 3153 3154 3155 3155 3156 3156
3128 3128 3129 3129 3130 3130 3131 3132 3132 3132 3132 3132 3132 3132 3132 3133 3133 3134 3135 3136 3137 3138 3139 3140 3141 3142 3143 3144 3145 3146 3147 3147 3148 3148 3149 3150 3151 3152 3153 3153 3154 3154
3126 3126 3127 3128 3129 3128 3129 3130 3130 3131 3131 3131 3131 3131 3131 3132 3133 3133 3134 3135 3136 3137 3137 3138 3140 3140 3141 3142 3143 3144 3145 3146 3146 3146 3147 3148 3149 3149 3150 3150 3150 3151
3122 3123 3124 3126 3127 3126 3127 3128 3129 3129 3129 3130 3130 3130 3130 3131 3131 3132 3132 3133 3134 3135 3136 3137 3138 3138 3139 3140 3141 3142 3143 3143 3144 3144 3144 3145 3145 3146 3146 3146 3146 3147
3120 3121 3122 3123 3123 3124 3124 3125 3126 3126 3126 3126 3127 3128 3128 3128 3129 3129 3130 3131 3132 3133 3134 3135 3136 3136 3137 3137 3138 3139 3140 3141 3141 3141 3142 3142 3142 3143 3142 3142 3143 3143
3118 3119 3120 3120 3121 3121 3122 3122 3123 3123 3123 3124 3124 3125 3125 3125 3126 3127 3128 3129 3129 3130 3131 3132 3133 3134 3135 3135 3136 3136 3137 3137 3137 3138 3138 3139 3139 3139 3139 3139 3139 3139
3116 3117 3118 3119 3119 3119 3120 3120 3121 3121 3121 3122 3122 3123 3123 3123 3124 3124 3125 3126 3126 3127 3128 3128 3129 3130 3131 3132 3132 3133 3133 3133 3133 3134 3134 3135 3135 3135 3135 3135 3135 3135
3114 3115 3115 3116 3117 3117 3117 3118 3118 3118 3118 3119 3120 3120 3121 3121 3122 3122 3123 3123 3124 3124 3125 3125 3126 3126 3127 3127 3128 3129 3128 3128 3129 3129 3130 3130 3130 3131 3131 3131 3131 3130
3111 3112 3113 3113 3114 3114 3114 3115 3115 3115 3115 3116 3117 3117 3118 3119 3119 3120 3120 3120 3121 3121 3122 3122 3123 3123 3123 3124 3124 3124 3124 3124 3124 3124 3124 3125 3125 3126 3126 3126 3126 3126
3109 3110 3110 3110 3111 3111 3111 3111 3112 3112 3113 3113 3114 3115 3115 3116 3117 3117 3118 3118 3118 3118 3118 3119 3119 3120 3120 3120 3121 3121 3120 3121 3121 3120 3120 3120 3120 3121 3121 3121 3121 3121
3107 3108 3108 3108 3108 3109 3109 3109 3110 3110 3111 3111 3112 3112 3113 3113 3114 3114 3115 3115 3115 3115 3115 3115 3116 3116 3117 3117 3117 3117 3116 3116 3116 3116 3115 3115 3116 3116 3116 3115 3115 3115
3104 3105 3105 3106 3106 3106 3107 3107 3107 3108 3108 3108 3109 3109 3110 3110 3110 3111 3111 3112 3112 3112 3112 3111 3111 3112 3112 3112 3112 3112 3112 3111 3111 3110 3110 3111 3111 3111 3111 3110 3110 3110
Wind_Speed
15 13 12 10 9 9 9 9 9 8 7 6 5 6 5 4 4 5 7 6 4 3 2 2 3 6 7 7 7 6 6 5 4 5 6 7 8 9 9 10 11 12
16 15 13 11 8 8 7 8 8 7 6 5 5 6 6 5 4 5 7 6 5 5 4 3 4 6 7 7 7 7 6 5 4 3 3 4 5 6 7 7 8 9
17 16 15 12 9 8 7 7 7 6 5 4 2 4 6 6 5 5 6 6 6 5 5 5 5 6 7 8 8 7 6 5 4 3 2 3 3 4 5 6 7 8
17 17 16 12 10 8 6 6 6 6 6 4 0 2 4 6 5 5 6 6 6 6 7 7 7 7 7 8 7 6 5 3 2 2 2 2 3 4 5 6 8 9
17 17 14 12 10 7 6 6 6 6 6 5 1 2 4 4 5 6 6 6 7 7 8 8 8 8 8 8 8 6 5 3 2 2 2 3 4 6 7 8 9 10
17 16 14 12 9 6 5 5 5 5 6 5 3 3 5 5 5 6 6 6 7 7 8 9 9 8 8 8 8 6 5 4 3 3 4 6 7 7 8 9 10 11
18 16 14 12 8 5 4 4 5 5 5 5 4 3 7 7 6 6 6 7 8 8 8 9 8 8 8 8 7 5 4 3 3 4 5 6 7 7 8 8 9 10
18 16 14 10 7 5 4 5 5 5 4 4 3 3 7 9 7 7 7 8 9 9 9 9 9 9 9 9 8 6 5 4 4 4 5 5 6 6 7 8 9 9
17 15 12 8 6 6 6 6 5 5 4 3 2 4 8 9 8 7 9 10 10 10 9 9 9 9 9 10 9 8 6 5 5 6 6 6 7 7 8 8 9 9
16 14 10 7 7 7 7 6 5 5 4 2 3 5 9 11 9 9 11 11 10 10 10 9 9 9 9 10 10 9 8 7 6 6 8 8 9 9 8 8 8 8
16 12 9 8 8 8 8 6 5 5 4 3 4 6 8 11 11 10 11 12 10 10 10 9 9 9 9 9 10 9 9 9 8 8 8 9 9 9 8 8 8 7
15 12 10 10 9 9 8 6 5 5 5 5 5 6 7 9 11 11 11 12 11 10 10 9 8 8 8 9 9 9 9 9 9 9 9 8 8 8 8 8 7 7
15 14 12 10 10 10 9 8 6 6 5 6 7 7 7 8 10 11 11 11 11 10 10 9 8 8 8 8 8 8 9 9 10 10 10 9 8 8 7 7 6 6
17 15 12 11 11 10 10 9 8 7 6 7 7 8 8 8 9 10 11 11 10 10 10 10 10 9 9 9 9 9 10 10 10 10 10 10 9 9 8 7 7 8
19 15 13 13 12 12 12 10 9 8 7 7 7 7 7 7 8 9 10 11 11 10 10 10 10 10 10 10 10 10 10 11 11 11 11 11 11 11 11 11 11 12
19 17 16 16 16 15 14 12 10 9 8 7 7 7 7 6 7 8 10 10 11 11 11 12 12 12 12 13 13 12 12 13 13 14 14 14 15 15 16 16 16 16
19 18 17 18 18 16 15 13 12 10 9 8 7 7 8 7 7 8 9 11 11 12 12 13 14 14 15 16 16 15 16 16 17 18 18 19 19 19 20 21 21 21
20 19 19 18 17 15 14 13 12 11 10 9 9 9 9 9 9 9 10 12 12 13 14 15 15 16 16 17 18 17 17 19 20 22 23 23 23 24 24 25 25 25
19 19 19 18 17 15 15 15 14 13 12 12 11 11 10 10 10 10 11 12 12 12 14 15 16 17 18 18 19 19 19 20 22 23 23 24 25 26 27 28 28 29
19 19 19 20 19 18 17 17 16 15 14 13 12 12 11 11 10 10 11 12 12 13 14 14 14 16 18 19 20 21 21 22 23 23 24 24 25 26 27 28 29 30
21 21 21 20 20 19 18 17 16 15 14 13 12 12 12 12 11 12 13 13 14 15 16 16 16 16 17 18 19 20 21 22 23 23 24 25 25 26 27 28 29 30
24 24 22 21 20 19 18 17 17 16 16 15 15 15 14 14 14 14 15 15 16 17 18 18 19 19 19 20 20 21 21 22 22 22 23 24 25 25 26 27 28 29
24 23 23 22 21 20 19 19 19 19 18 18 17 17 17 17 18 18 18 19 19 20 21 21 21 22 22 22 22 22 23 23 24 26 27 27 28 28 28 29 29 29
23 23 23 22 22 22 22 21 22 21 21 21 21 21 21 21 21 22 22 23 24 24 25 26 25 25 25 25 25 26 27 27 27 29 31 31 31 31 32 33 33 33
24 24 23 22 22 22 23 23 23 23 23 23 23 24 24 25 26 27 27 27 28 28 29 30 30 29 29 29 30 30 31 32 32 34 35 35 35 35 35 36 36 35
23 23 23 23 24 25 25 25 25 25 25 26 26 27 28 29 30 31 31 31 31 32 33 34 34 34 34 35 35 36 37 38 39 40 40 39 38 38 38 39 39 39
Wind_Direction
222 225 234 253 279 291 294 296 302 310 314 304 274 253 239 236 230 223 226 220 193 166 174 197 182 178 181 184 191 196 203 218 236 244 241 227 216 219 226 233 239 240
228 231 238 255 275 282 283 288 294 302 308 300 264 234 220 211 209 214 214 204 183 163 155 159 161 167 174 180 185 191 200 210 218 224 224 211 204 209 215 221 230 236
228 234 244 257 267 273 278 284 292 302 309 310 250 203 199 191 191 205 204 190 171 157 148 147 156 168 174 179 184 189 194 196 198 208 202 192 195 200 205 208 211 220
232 241 248 257 264 271 279 286 294 305 315 323 348 162 171 174 182 194 191 176 161 150 144 145 157 172 175 174 177 181 189 191 187 200 200 183 181 189 197 202 206 216
238 245 250 258 264 269 279 290 296 303 315 320 304 165 168 174 180 184 176 164 156 147 143 148 158 168 169 166 168 172 180 182 174 184 185 172 174 184 191 196 204 214
240 243 250 259 261 265 277 284 290 299 305 303 277 187 180 183 185 183 172 158 154 147 144 151 157 159 157 158 162 166 173 176 178 188 186 179 185 194 194 194 201 211
238 239 248 256 251 254 266 266 278 291 290 288 279 205 182 184 191 187 170 155 153 149 144 145 147 147 147 147 148 147 149 155 167 182 186 186 194 201 197 191 194 206
235 238 245 248 241 238 236 246 268 277 271 272 274 221 186 183 191 186 167 155 152 146 140 138 139 140 138 133 128 124 123 131 145 158 169 175 180 185 184 179 179 186
232 238 242 241 232 223 220 237 256 251 244 241 217 201 187 183 187 180 164 152 146 142 137 138 139 136 132 127 123 120 118 118 127 139 147 150 154 162 167 166 165 168
233 236 239 239 226 215 217 230 236 220 212 193 163 177 183 182 181 174 161 150 144 142 139 141 142 136 131 130 129 129 124 120 128 141 145 147 152 158 161 161 160 164
228 231 230 233 225 218 220 220 214 201 188 167 151 162 175 180 179 174 163 153 148 146 144 146 147 139 137 137 139 142 140 137 145 154 154 153 156 161 165 166 168 174
214 223 225 227 223 220 218 207 197 188 175 160 152 157 169 176 178 179 174 164 159 157 154 156 157 152 147 146 148 155 157 156 160 167 168 165 167 174 178 184 192 200
206 214 215 217 218 215 211 203 192 180 166 154 151 159 166 171 178 185 186 180 173 171 170 172 175 173 167 163 164 171 177 178 178 181 184 184 187 194 198 206 217 228
211 208 197 202 212 211 208 203 190 179 165 150 149 157 162 167 177 185 193 197 193 189 190 191 193 194 192 190 188 190 196 200 201 201 203 206 207 211 217 226 237 246
219 207 187 193 203 206 208 204 193 189 177 156 149 151 156 168 181 187 195 204 207 208 210 211 212 213 215 216 216 216 217 220 224 226 228 230 233 236 238 239 243 250
214 205 193 194 195 195 200 198 195 197 191 174 161 157 164 179 189 193 197 205 214 220 223 225 227 228 229 231 232 234 236 240 243 246 248 249 250 253 254 254 254 256
201 200 199 202 200 195 195 197 201 204 202 195 185 181 185 190 196 200 201 206 214 221 226 229 232 234 236 238 240 243 247 250 251 252 253 255 256 257 258 260 261 262
197 199 200 206 208 202 199 202 207 211 214 215 213 210 207 204 206 210 209 211 215 219 223 225 229 234 238 240 243 247 252 255 257 257 257 257 259 260 261 263 264 266
213 212 207 208 210 210 210 212 215 217 222 227 228 226 224 220 219 219 218 221 223 225 227 225 225 229 234 238 241 244 247 250 254 257 259 259 261 263 264 266 269 271
228 228 224 221 219 220 222 226 229 230 231 232 233 235 239 242 241 234 231 236 242 245 247 245 239 237 237 240 242 242 243 244 246 248 251 253 256 259 261 264 268 270
232 233 234 232 230 230 232 235 239 240 240 239 240 244 250 255 255 250 247 252 255 256 258 259 258 256 253 251 251 249 247 246 245 245 247 250 253 255 258 261 264 265
233 232 232 233 234 236 237 238 241 241 241 241 241 244 249 253 255 254 255 258 258 258 260 260 261 263 263 262 261 260 259 258 257 257 256 256 257 258 261 263 263 264
234 233 231 231 231 232 233 235 238 240 242 243 243 245 250 254 257 259 261 263 263 262 262 261 261 264 265 265 264 264 265 265 267 268 267 265 266 267 268 269 268 268
239 237 234 231 230 233 235 237 239 240 242 244 246 249 253 256 258 259 260 261 262 263 263 262 261 260 262 263 264 266 267 267 267 267 266 266 267 268 269 270 271 270
244 240 235 230 229 232 235 236 239 241 243 246 248 250 252 254 255 256 256 257 258 259 261 261 261 260 260 261 262 263 265 266 266 266 265 266 266 266 267 269 270 269
241 239 237 234 233 234 236 238 240 243 246 249 251 252 253 254 254 255 255 256 257 259 260 261 261 261 261 262 263 263 264 264 265 265 266 266 266 266 266 266 267 268